This demonstration page uses our WeatherBlox Daily Observations layout. Learn more.

Left ArrowRight Arrow

41.12389, -100.76542

Hourly Observations for July 27, 2022

Temp ( °F °C ) Dew Point ( °F °C ) Humidity (%) Winds ( mph kmh ) Pressure ( in mb ) Visibility ( mi km ) Precip ( " mm )
12:53 am 00:53 Clear 68 20 60 15.6 76 76 NE 5 7 30.01 1016 10 16 0.00 0.00
1:53 am 01:53 Clear 65 18.3 60 15.6 84 84 NE 7 11 30.02 1017 10 16 0.00 0.00
2:53 am 02:53 Clear 64 17.8 59 15 84 84 Calm 30.01 1016 10 16 0.00 0.00
3:53 am 03:53 Clear 63 17.2 59 15 87 87 E 3 6 30.01 1016 10 16 0.00 0.00
4:53 am 04:53 Clear 62 16.7 58 14.4 86 86 Calm 30.00 1016 10 16 0.00 0.00
5:53 am 05:53 Clear 60 15.6 57 13.9 90 90 Calm 30.00 1016 9 14 0.00 0.00
6:53 am 06:53 Sunny 59 15 57 13.9 93 93 Calm 30.01 1016 10 16 0.00 0.00
7:53 am 07:53 Sunny 61 16.1 58 14.4 90 90 W 5 7 30.03 1017 10 16 0.00 0.00
8:53 am 08:53 Sunny 66 18.9 61 16.1 84 84 Calm 30.03 1017 10 16 0.00 0.00
9:53 am 09:53 Sunny 69 20.6 62 16.7 78 78 WNW 6 9 30.04 1017 10 16 0.00 0.00
10:53 am 10:53 Sunny 69 20.6 62 16.7 78 78 WNW 9 15 30.09 1019 10 16 0.00 0.00
11:53 am 11:53 Cloudy with Light Rain 66 18.9 62 16.7 87 87 W 3 6 30.06 1018 10 16 0.04 1.02
12:53 pm 12:53 Sunny 72 22.2 64 17.8 76 76 ENE 3 6 30.01 1016 10 16 0.01 0.25
1:53 pm 13:53 Sunny 76 24.4 62 16.7 62 62 SSW 5 7 30.01 1016 10 16 0.00 0.00
2:53 pm 14:53 Sunny 82 27.8 61 16.1 49 49 Calm 29.98 1015 10 16 0.00 0.00
3:53 pm 15:53 Partly Cloudy 86 30 55 12.8 35 35 S 5 7 29.96 1014 10 16 0.00 0.00
4:53 pm 16:53 Cloudy 88 31.1 56 13.3 34 34 N 7 11 29.94 1014 10 16 0.00 0.00
5:53 pm 17:53 Sunny 87 30.6 60 15.6 40 40 SE 7 11 29.92 1013 10 16 0.00 0.00
6:53 pm 18:53 Sunny 86 30 60 15.6 42 42 ESE 10 17 29.91 1013 10 16 0.00 0.00
7:53 pm 19:53 Sunny 83 28.3 64 17.8 53 53 ESE 7 11 29.92 1013 10 16 0.00 0.00
8:53 pm 20:53 Mostly Sunny 76 24.4 66 18.9 72 72 E 6 9 29.93 1014 10 16 0.00 0.00
9:53 pm 21:53 Mostly Cloudy 76 24.4 65 18.3 69 69 E 8 13 29.93 1014 10 16 0.00 0.00
10:53 pm 22:53 Clear 72 22.2 65 18.3 79 79 E 6 9 29.97 1015 10 16 0.00 0.00
11:37 pm 23:37 Partly Cloudy with Thunderstorms 72 22.2 64 17.8 76 76 N 26 43 30.00 1016 10 16 0.00 0.00
11:46 pm 23:46 Windy with Storms Likely 64 17.8 61 16.1 90 90 NNW 33 54 30.03 1017 2 3 0.00 0.00
11:48 pm 23:48 Mostly Cloudy with Strong Thunderstorms 63 17 61 16 94 94 N 20 31 30.03 1017 2 2 0.00 0.00
11:50 pm 23:50 Mostly Cloudy with Strong Thunderstorms 63 17 61 16 94 94 N 14 22 30.04 1017 1 2 0.08 2.03
11:53 pm 23:53 Mostly Cloudy with Strong Thunderstorms 63 17.2 60 15.6 90 90 NE 14 22 30.06 1018 1 2 0.31 7.87
11:56 pm 23:56 Mostly Cloudy with Strong Thunderstorms 63 17.2 60 15.6 90 90 ENE 10 17 30.02 1017 2 3 0.18 4.57
11:58 pm 23:58 Cloudy with Strong Thunderstorms 63 17.2 60 15.6 90 90 E 9 15 30.02 1017 3 5 0.24 6.10

Powered by AerisWeather